17:43
Airports
History
Links
Donate
Help keep this website running!
PayPal
Bitcoin
This page is community maintained. The information is intended for PC simulator navigation or reference.
Always use approved charts for navigation.
OTBD
DOHA INTL
DOHA INTL (OTBD)
Doha, Doha, Qatar
(C)
Lat/Lng:25° 15' 39.8" N / 51° 33' 54" E
25.261056 / 51.564999
Elevation:35'ft / 11mMSL
ID / ICAO:OTBD
Runways:1
Longest:(16-34) 4,586.6m / 15,048ft Asphalt
Controlled:Yes
Distance To
Airport ID:
Airport Radio Frequencies
ATIS: 126.45
Ground: 118.27
Tower: 118.65, 118.9
Approach: 119.4, 121.1
Nearby VORs <50NM
Nearby NDBs
METARUpdated 08-21-17 17:00 GMT
Altimeter: 29.44
Visibility: 6.2 statute miles
Wind: 7 knots (020°)
Temp: 36°c 97°f
Humidity: 71.4%

METAR: OTBD 211700Z 02007KT CAVOK 36/30 Q0997 NOSIG

(Powered by phpweather)
Runway 16 / 34
Dimensions:4586.6 x 46m 15048' x 151'ft
Surface:Asphalt
Edge Lights:High intensity
Runway 16 [A]Runway 34 [B]
Heading:158°TH 338°TH
Lat:
Lng:
25° 16' 48.8"N
51° 33' 23.49"E
25° 14' 30.8"N
51° 34' 24.5"E
ALS:ALSF-IALSF-II
TDZ:Yes, lighted
User Notes and Comments
Google Map
Nearby Airports
(C) AL UDEID AB 18.5 NM
OTBH WSW 237°
(C) AL KHOR 25.7 NM
OTBK N 351°
4 ARZANAH 70.6 NM
OMAR ESE 118°
(C) SHAIKH ISA 75.8 NM
OBBS NW 306°
4 DAS ISLAND 82.2 NM
OMAS E 95°
(C) BAHRAIN INTL 90.6 NM
OBBI (WX) NW 320°
(U) YAS ISLAND 92.8 NM
OM10 SE 136°
VFR Chart
Flight Planning at SkyVector.com